Location: Newark
(46.7000°N, 60.6000°W)
Time: 23:44:39
(UTC+00:00)

Vanguard 3 - Pass Details

Date: 08 November 2020
Orbit: 508 x 3262 km, 33.3° (Epoch: 29 November)

Event Time Altitude Azimuth Distance (km) Brightness Sun altitude
Rises 04:08:21 0° 179° (S) 4,285 - -59.6°
Reaches altitude 10° 04:13:19 10° 152° (SSE) 3,894 - -59.5°
Maximum altitude 04:17:27 13° 129° (SE) 4,108 - -59.3°
Drops below altitude 10° 04:22:21 10° 107° (ESE) 4,835 - -59.1°
Exits shadow 04:23:26 - 103° (ESE) 5,041 11.2 -59.0°
Sets 04:30:24 0° 85° (E) 6,509 11.9 -58.6°
